FW2460 Weather Reports


time (UTC)temp
C
wind
direction
speed
KPH
gust
KPH
rain 1hr
cm
rain 24hr
cm
rain mn
cm
humidity
%
barometer
mb
20260507124548 6 355 3.2 4.8 0.00 0.00 0.00 51 1021.8
20260507123050 5 355 4.8 6.4 0.00 0.00 0.00 53 1021.6
20260507121547 3 339 4.8 8.0 0.00 0.00 0.00 54 1021.6
20260507120047 3 333 6.4 8.0 0.00 0.00 0.00 53 1021.6
20260507114545 5 344 3.2 6.4 0.00 0.00 0.00 52 1021.7
20260507113038 6 22 3.2 4.8 0.00 0.00 0.00 49 1021.6
20260507111540 6 28 3.2 6.4 0.00 0.00 0.00 50 1021.6
20260507110034 6 77 4.8 8.0 0.00 0.00 0.00 51 1021.6
20260507104533 6 76 4.8 6.4 0.00 0.00 0.00 51 1021.5
20260507103033 6 63 4.8 8.0 0.00 0.00 0.00 51 1021.4
20260507101530 6 86 4.8 6.4 0.00 0.00 0.00 50 1021.2
20260507100032 6 87 4.8 9.7 0.00 0.00 0.00 49 1021.3
20260507094527 7 61 6.4 8.0 0.00 0.00 0.00 49 1021.3
20260507093034 6 40 6.4 8.0 0.00 0.00 0.00 49 1021.4
20260507091527 6 40 6.4 8.0 0.00 0.00 0.00 49 1021.6
20260507090024 6 40 4.8 8.0 0.00 0.00 0.00 49 1021.7
20260507084522 6 42 6.4 12.9 0.00 0.00 0.00 49 1021.8
20260507083026 6 11 8.0 12.9 0.00 0.00 0.00 48 1022.1
20260507081528 7 19 8.0 11.3 0.00 0.00 0.00 48 1022.2
20260507080019 7 14 9.7 14.5 0.00 0.00 0.00 47 1022.2
20260507074511 7 28 11.3 17.7 0.00 0.00 0.00 46 1022.2
20260507073008 8 31 14.5 19.3 0.00 0.00 0.00 45 1021.9
20260507071505 8 34 17.7 29.0 0.00 0.00 0.00 44 1021.5
20260507070001 8 55 25.7 35.4 0.00 0.00 0.00 44 1021.6
20260507064613 9 30 25.7 33.8 0.00 0.00 0.00 44 1021.4
20260507063056 9 61 22.5 33.8 0.00 0.00 0.00 44 1021.4
20260507061551 10 59 19.3 33.8 0.00 0.00 0.00 43 1021.2
20260507060050 10 61 22.5 37.0 0.00 0.00 0.00 42 1020.8
20260507054545 10 33 27.4 40.2 0.00 0.00 0.00 42 1020.6
20260507053040 11 64 27.4 38.6 0.00 0.00 0.00 42 1020.6
20260507051539 11 75 27.4 35.4 0.00 0.00 0.00 42 1020.6
20260507050039 11 78 24.1 35.4 0.00 0.00 0.00 42 1020.4
20260507044534 11 61 20.9 32.2 0.00 0.00 0.00 42 1020.6
20260507043030 11 57 22.5 32.2 0.00 0.00 0.00 41 1020.3
20260507041542 12 79 20.9 38.6 0.00 0.00 0.00 40 1020.1
20260507040024 12 71 20.9 33.8 0.00 0.00 0.00 39 1019.8
20260507034522 12 74 24.1 32.2 0.00 0.00 0.00 38 1019.5
20260507033021 13 70 17.7 30.6 0.00 0.00 0.00 38 1019.1
20260507031519 12 80 19.3 25.7 0.00 0.00 0.00 39 1018.7
20260507030019 12 78 14.5 19.3 0.00 0.00 0.00 38 1018.6
20260507024514 13 91 14.5 20.9 0.00 0.00 0.00 38 1017.9
20260507023013 13 94 16.1 20.9 0.00 0.00 0.00 37 1017.7
20260507021513 13 84 12.9 19.3 0.00 0.00 0.00 36 1017.3
20260507020013 13 80 16.1 24.1 0.00 0.00 0.00 35 1016.9
20260507014520 14 85 19.3 27.4 0.00 0.00 0.00 34 1016.7
20260507013029 15 90 17.7 33.8 0.00 0.00 0.00 33 1016.3
20260507011521 15 96 24.1 41.8 0.00 0.00 0.00 32 1016.1
20260507010010 16 91 29.0 37.0 0.00 0.00 0.00 31 1015.8
20260507004507 16 95 22.5 33.8 0.00 0.00 0.00 30 1015.7
20260507003006 16 86 25.7 41.8 0.00 0.00 0.00 30 1015.6
20260507001508 17 80 25.7 38.6 0.00 0.00 0.00 29 1015.5
20260507000019 17 91 29.0 40.2 0.00 0.00 0.00 29 1015.4
20260506234505 17 83 27.4 37.0 0.00 0.00 0.00 28 1015.3
20260506233005 17 76 25.7 35.4 0.00 0.00 0.00 28 1015.4
20260506231504 17 88 25.7 35.4 0.00 0.00 0.00 28 1015.2
20260506230004 17 117 24.1 38.6 0.00 0.00 0.00 27 1015.2
20260506224503 17 94 20.9 35.4 0.00 0.00 0.00 27 1015.0
20260506223004 17 78 22.5 38.6 0.00 0.00 0.00 27 1015.0
20260506221502 17 90 12.9 29.0 0.00 0.00 0.00 27 1015.3
20260506220100 17 61 19.3 32.2 0.00 0.00 0.00 28 1015.2
20260506214609 17 86 12.9 32.2 0.00 0.00 0.00 29 1015.1
20260506213057 17 49 20.9 32.2 0.00 0.00 0.00 29 1015.2
20260506211557 17 94 24.1 33.8 0.00 0.00 0.00 29 1015.6
20260506204554 17 28 17.7 27.4 0.00 0.00 0.00 30 1015.9
20260506203059 16 63 12.9 29.0 0.00 0.00 0.00 31 1016.0
20260506201551 16 47 11.3 24.1 0.00 0.00 0.00 32 1016.1
20260506200125 16 117 16.1 24.1 0.00 0.00 0.00 33 1016.0
20260506194547 16 59 14.5 25.7 0.00 0.00 0.00 33 1016.1
20260506193050 15 105 17.7 30.6 0.00 0.00 0.00 34 1016.0
20260506191547 15 69 20.9 30.6 0.00 0.00 0.00 35 1016.1
20260506190045 15 87 17.7 29.0 0.00 0.00 0.00 35 1016.3
20260506184541 14 67 14.5 32.2 0.00 0.00 0.00 37 1016.5
20260506183040 13 114 14.5 25.7 0.00 0.00 0.00 38 1016.6
20260506181539 13 84 19.3 27.4 0.00 0.00 0.00 39 1016.8
20260506180046 13 113 6.4 32.2 0.00 0.00 0.00 41 1017.0
20260506174533 12 74 17.7 29.0 0.00 0.00 0.00 42 1017.4
20260506173031 12 147 16.1 29.0 0.00 0.00 0.00 43 1017.3
20260506171545 11 111 9.7 29.0 0.00 0.00 0.00 43 1017.2
20260506170028 11 76 19.3 33.8 0.00 0.00 0.00 44 1017.5
20260506164526 11 78 20.9 32.2 0.00 0.00 0.00 45 1017.0
20260506163027 10 105 20.9 33.8 0.00 0.00 0.00 46 1016.9
20260506161534 10 89 25.7 35.4 0.00 0.00 0.00 48 1016.8
20260506160021 10 92 25.7 41.8 0.00 0.00 0.00 48 1016.8
20260506154518 9 108 24.1 43.5 0.00 0.00 0.00 47 1016.7
20260506153016 9 80 25.7 37.0 0.00 0.00 0.00 49 1016.8
20260506151515 8 85 27.4 35.4 0.00 0.00 0.00 49 1016.9
20260506150020 8 86 25.7 40.2 0.00 0.00 0.00 48 1016.7
20260506144514 8 41 29.0 40.2 0.00 0.00 0.00 50 1016.7
20260506143013 8 62 29.0 35.4 0.00 0.00 0.00 49 1016.7
20260506141511 7 74 22.5 33.8 0.00 0.00 0.00 50 1016.4
20260506140011 7 69 25.7 33.8 0.00 0.00 0.00 50 1016.1
20260506134520 7 81 27.4 40.2 0.00 0.00 0.00 51 1016.1
20260506133006 7 66 25.7 38.6 0.00 0.00 0.00 50 1015.6
20260506131504 6 71 29.0 40.2 0.00 0.00 0.00 50 1015.3
20260506130003 6 65 24.1 38.6 0.00 0.00 0.00 51 1015.2